Regional Weather Roundup
Issued by NWS Sterling, VA

Home | Current Version | Previous Version | Graphics & Text | Print | Product List | Glossary On
Versions: 1 2 3 4 5 6 7 8 9 10 11 12 13 14 15 16 17 18 19 20 21 22 23 24 25 26 27 28 29 30 31 32 33 34 35 36 37 38 39 40 41 42 43 44 45 46 47 48 49 50
000
ASUS41 KLWX 220611
RWRLWX

REGIONAL WEATHER ROUNDUP
NATIONAL WEATHER SERVICE BALTIMORE MD/WASHINGTON DC
200 AM EDT TUE MAY 22 2018

Note: "FAIR" indicates few or no clouds below 12,000 feet
with no significant weather and/or obstructions to visibility.
 TC=TEMPERATURE CELSIUS

 * =Non NWS site. Station does not report precipitation (e.g. rain,
    snow, etc.), thunder, or fog.

DCZ001-MDZ009-015-VAZ040>042-051-053>054-220700-
WASHINGTON METRO

CITY           SKY/WX    TMP DP  RH WIND       PRES   REMARKS
WASHINGTON NAT CLOUDY    67  59  75 S6        30.14F
DULLES         CLOUDY    68  61  78 S6        30.13F
ANDREWS AFB    CLOUDY    64  58  80 CALM      30.14F
QUANTICO       FAIR      67  62  84 SE7       30.14F
COLLEGE PARK*  CLOUDY    67  57  69 S3        30.14F
LEESBURG*      CLOUDY    70  64  83 S6        30.14F
MANASSAS*      CLOUDY    67  62  84 CALM      30.14F
GAITHERSBURG*  CLOUDY    68  58  70 S3        30.15F

$$

MDZ006>007-011-014-220700-
BALTIMORE METRO

CITY           SKY/WX    TMP DP  RH WIND       PRES   REMARKS
BWI AIRPORT    MOCLDY    66  58  75 SW3       30.14F
MD SCIENCE CTR   N/A     69  58  67 MISG      30.15F
MARTIN STATE   CLOUDY    68  63  83 S3        30.16F
ANNAPOLIS      CLOUDY    69  57  65 CALM      30.14F
FORT MEADE*    CLOUDY    63  59  88 CALM      30.17F

$$

MDZ012-015-019>023-220700-
MARYLAND EASTERN SHORE

CITY           SKY/WX    TMP DP  RH WIND       PRES   REMARKS
OCEAN CITY     CLOUDY    59  59 100 CALM      30.16S
SALISBURY      CLOUDY    61  59  93 CALM      30.15F
BAY BRIDGE AP* CLOUDY    68  61  77 CALM      30.15F
CAMBRIDGE*     CLOUDY    64  59  82 CALM      30.15F
EASTON*        MOCLDY    66  56  71 CALM      30.19S

$$

MDZ017>025-220700-
SOUTHERN MARYLAND

CITY           SKY/WX    TMP DP  RH WIND       PRES   REMARKS
PATUXENT RIVER MOCLDY    69  59  70 S3        30.14F
ST INIGOES     MOCLDY    67  60  78 E3        30.13F
LEONARDTOWN*   MOCLDY    63  59  88 CALM      30.16F

$$

MDZ003>005-220700-
NORTH CENTRAL MARYLAND

CITY           SKY/WX    TMP DP  RH WIND       PRES   REMARKS
FREDERICK*     CLOUDY    72  61  68 S5        30.16S
HAGERSTOWN APT CLOUDY    71  63  75 S12       30.11F
WESTMINSTER*   LGT RAIN  68  63  83 S6        30.15S

$$

MDZ501>502-220700-
WESTERN MARYLAND

CITY           SKY/WX    TMP DP  RH WIND       PRES   REMARKS
OAKLAND*       FAIR      61  61 100 S13       30.17S
CUMBERLAND*    FAIR      68  68 100 SE5       30.15S

$$

VAZ025>031-220700-
SHENANDOAH VALLEY

CITY           SKY/WX    TMP DP  RH WIND       PRES   REMARKS
WINCHESTER*    LGT RAIN  66  64  94 SW7       30.13F
FRONT ROYAL*   FAIR      68  64  88 S5        30.11F
LURAY*         FAIR      66  64  94 CALM      30.12F
NEW MARKET*    CLOUDY    65  64  96 CALM      30.11F
STAUNTON*      DRIZZLE   64  64  98 S6        30.17S
WAYNESBORO*    CLOUDY    64  64  99 CALM      30.16F

$$

WVZ021-048>050-054>055-220700-
EASTERN WEST VIRGINIA PANHANDLE

CITY           SKY/WX    TMP DP  RH WIND       PRES   REMARKS
MARTINSBURG    MOCLDY    70  64  81 S5        30.10F
PETERSBURG*    LGT RAIN  64  63  97 CALM      30.13F

$$

VAZ036>039-050-220700-
CENTRAL FOOTHILLS

CITY           SKY/WX    TMP DP  RH WIND       PRES   REMARKS
CHARLOTTESVILL CLOUDY    71  67  87 S7        30.12F
CULPEPER*      CLOUDY    68  61  77 SE3       30.13F
ORANGE*        CLOUDY    66  61  82 SE3       30.13F
GORDONSVILLE*  CLOUDY    68  66  93 CALM      30.12F
WARRENTON*     CLOUDY    68  60  74 E6        30.12F

$$

VAZ055>057-220700-
NORTH AND CENTRAL PIEDMONT

CITY           SKY/WX    TMP DP  RH WIND       PRES   REMARKS
FREDERICKSBRG* CLOUDY    67  61  83 CALM      30.13F
STAFFORD*      FAIR      65  64  97 CALM      30.18S

$$

NCZ024-NYZ072-PAZ021-071-VAZ022-071-220700-
OTHER REGIONAL OBSERVATIONS

CITY           SKY/WX    TMP DP  RH WIND       PRES   REMARKS
NEW YORK CITY  FAIR      62  47  57 W3        30.18F
PHILADELPHIA   MOCLDY    62  53  72 S5        30.16F
PITTSBURGH     CLOUDY    70  63  78 W5        30.08R
ROANOKE        RAIN      67  65  93 CALM      30.17F FOG
RICHMOND       CLOUDY    67  61  81 SE5       30.14F
RALEIGH        MOCLDY    69  69 100 CALM      30.11F

$$

ANZ530>537-220700-
MARINE OBSERVATIONS

STATION/POSITION TIME  TEMP    WIND        PRES
                       AIR SEA DIR/SP/G
                 (UTC) (F)     (DEG/KT/KT) (MB)
THOMAS PT LIGHT  0600   67 67  230/  6/  6 1021.8F
BALT KEY BRIDGE  0548   67     180/  8/  9 1020.7F
COVE POINT       0548   68     190/ 12/ 12 1021.4F
LEWISETTA        0548   67 74  160/  4/  5 1020.7F
SOLOMONS ISLAND  0548   67 69  160/  6/  6 1020.4F
PINEY POINT      0548          170/  8/ 10   N/A

$$




USA.gov is the U.S. government's official web portal to all federal, state and local government web resources and services.